This demonstration page uses our WeatherBlox Daily Observations layout. Learn more.

Left ArrowRight Arrow

38.80484, -77.04692

Hourly Observations for April 29, 2023

Temp ( °F °C ) Dew Point ( °F °C ) Humidity (%) Winds ( mph kmh ) Pressure ( in mb ) Visibility ( mi km ) Precip ( " mm )
12:23 am 00:23 Cloudy with Light Rain 56 13.3 55 12.8 97 97 NE 8 13 29.79 1009 3 4 0.03 0.76
12:32 am 00:32 Cloudy with Light Rain 56 13.3 55 12.8 97 97 NNE 8 13 29.79 1009 3 5 0.03 0.76
12:52 am 00:52 Cloudy with Drizzle 57 13.9 55 12.8 93 93 NE 7 11 29.78 1008 4 6 0.04 1.02
1:52 am 01:52 Cloudy with Drizzle 56 13.3 55 12.8 97 97 N 7 11 29.77 1008 3 5 0.01 0.13
2:20 am 02:20 Cloudy with Drizzle 56 13.3 55 12.8 97 97 N 9 15 29.77 1008 3 4 0.01 0.13
2:52 am 02:52 Cloudy with Drizzle 56 13.3 55 12.8 97 97 NNE 8 13 29.77 1008 3 5 0.01 0.25
3:07 am 03:07 Cloudy with Drizzle 56 13.3 54 12.2 93 93 N 7 11 29.77 1008 3 4 0.01 0.13
3:16 am 03:16 Cloudy with Drizzle 56 13.3 54 12.2 93 93 N 8 13 29.77 1008 3 5 0.01 0.25
3:52 am 03:52 Cloudy with Drizzle 55 12.8 54 12.2 96 96 NNW 7 11 29.77 1008 4 6 0.01 0.25
4:52 am 04:52 Cloudy with Mist and Fog 55 12.8 54 12.2 96 96 N 10 17 29.78 1008 3 5 0.01 0.13
5:52 am 05:52 Cloudy with Mist and Fog 55 12.8 54 12.2 96 96 NNW 9 15 29.78 1009 5 8 0.01 0.25
6:47 am 06:47 Cloudy with Mist and Fog 55 13 54 12 94 94 N 8 13 29.81 1010 3 4 0.00 0.00
6:52 am 06:52 Cloudy with Light Rain 55 12.8 53 11.7 93 93 N 8 13 29.81 1009 3 5 0.01 0.13
7:26 am 07:26 Cloudy 55 12.8 53 11.7 93 93 N 12 19 29.82 1010 10 16 0.01 0.13
7:52 am 07:52 Cloudy 55 12.8 53 11.7 93 93 N 7 11 29.84 1011 10 16 0.01 0.13
8:52 am 08:52 Cloudy 56 13.3 53 11.7 90 90 NE 7 11 29.82 1010 10 16 0.00 0.00
9:52 am 09:52 Cloudy 57 13.9 53 11.7 87 87 N 3 6 29.84 1011 10 16 0.00 0.00
10:52 am 10:52 Cloudy 58 14.4 54 12.2 87 87 VRB 3 6 29.84 1011 10 16 0.00 0.00
11:52 am 11:52 Cloudy 59 15 54 12.2 83 83 VRB 3 6 29.84 1010 10 16 0.00 0.00
12:52 pm 12:52 Cloudy 61 16.1 55 12.8 81 81 NNE 6 9 29.83 1010 10 16 0.00 0.00
1:27 pm 13:27 Cloudy 63 17.2 55 12.8 75 75 NNW 5 7 29.81 1009 10 16 0.00 0.00
1:52 pm 13:52 Cloudy 64 17.8 55 12.8 73 73 NE 5 7 29.78 1009 10 16 0.00 0.00
2:52 pm 14:52 Mostly Cloudy 65 18.3 55 12.8 70 70 VRB 3 6 29.78 1008 10 16 0.00 0.00
3:13 pm 15:13 Partly Cloudy 67 19.4 55 12.8 66 66 Calm 29.78 1008 10 16 0.00 0.00
3:52 pm 15:52 Mostly Cloudy 66 18.9 55 12.8 68 68 SSE 5 7 29.78 1008 10 16 0.00 0.00
4:52 pm 16:52 Mostly Cloudy 66 18.9 56 13.3 70 70 SSE 5 7 29.77 1008 10 16 0.00 0.00
5:52 pm 17:52 Mostly Cloudy 67 19.4 56 13.3 68 68 S 3 6 29.74 1007 10 16 0.00 0.00
6:52 pm 18:52 Mostly Cloudy 66 18.9 56 13.3 70 70 S 3 6 29.75 1007 10 16 0.00 0.00
7:52 pm 19:52 Mostly Cloudy 65 18.3 57 13.9 76 76 ESE 10 17 29.75 1007 10 16 0.00 0.00
8:52 pm 20:52 Mostly Cloudy 62 16.7 56 13.3 80 80 ESE 12 19 29.77 1008 10 16 0.00 0.00
9:52 pm 21:52 Mostly Cloudy 61 16.1 55 12.8 81 81 ESE 3 6 29.77 1008 10 16 0.00 0.00
10:52 pm 22:52 Cloudy 61 16.1 55 12.8 81 81 E 3 6 29.73 1007 10 16 0.00 0.00
11:52 pm 23:52 Cloudy 61 16.1 55 12.8 81 81 ENE 5 7 29.70 1006 10 16 0.00 0.00

Powered by Vaisala Xweather